Stanley, ND

6:24 PM CDT on April 24, 2017 (GMT -0500)
Stanley

Weather History for K08D - July, 2013

Change the Weather History Date:

Friday, July 26, 2013

  Actual Average (KMIB) Record (KMIB)
Temperature  
Mean Temperature 55 °F -  
Max Temperature 64 °F 78 °F 93 °F (2015)
Min Temperature 46 °F 55 °F 47 °F (2008)
Degree Days  
Heating Degree Days 10    
Growing Degree Days 5 (Base 50)    
Moisture  
Dew Point 47 °F    
Average Humidity 76    
Maximum Humidity 100    
Minimum Humidity 45    
Precipitation  
Precipitation 0.00 in - - ()
Sea Level Pressure  
Sea Level Pressure 30.30 in    
Wind  
Wind Speed 8 mph (NE)    
Max Wind Speed 12 mph    
Max Gust Speed 18 mph    
Visibility 10 miles    
Events      
Averages and records for this station are not official NWS values.
T = Trace of Precipitation, MM = Missing Value Source: NWS Daily Summary

Daily Weather History Graph

Daily Weather History Graph

Search for Another Location

Airport or City:

Trip Planner

Search our weather history database for the weather conditions in past years. The results will help you decide how hot, cold, wet, or windy it might be!

Date:

Astronomy

Jul. 26, 2013 Rise Set
Actual Time 6:17 AM CDT 9:33 PM CDT
Civil Twilight 5:39 AM CDT 10:11 PM CDT
Nautical Twilight 4:50 AM CDT 11:00 PM CDT
Astronomical Twilight 3:46 AM CDT 12:03 AM CDT
Moon 11:19 PM CDT (7/26) 11:23 AM CDT (7/26)
Length of Visible Light 16h 31m
Length of Day
15h 16m
Waning Gibbous, 80% of the Moon is Illuminated
Jul 26
Waning Gibbous
Jul 29
Last Quarter
Aug 6
New
Aug 14
First Quarter
Aug 20
Full

Hourly Weather History & Observations

Time (CDT) Temp. Windchill Dew Point Humidity Pressure Visibility Wind Dir Wind Speed Gust Speed Precip Events Conditions
12:15 AM 53.6 °F - 53.6 °F 100% 30.24 in 10.0 mi NE 9.2 mph - N/A   Mostly Cloudy
12:35 AM 53.6 °F - 53.6 °F 100% 30.25 in 10.0 mi NE 6.9 mph - N/A   Overcast
12:55 AM 53.6 °F - 53.6 °F 100% 30.25 in 10.0 mi NNE 11.5 mph 16.1 mph N/A   Overcast
1:15 AM 53.6 °F - 53.6 °F 100% 30.26 in 10.0 mi NNE 11.5 mph 16.1 mph N/A   Overcast
1:35 AM 53.6 °F - 53.6 °F 100% 30.26 in 10.0 mi NNE 8.1 mph 18.4 mph N/A   Overcast
1:55 AM 50.0 °F - 50.0 °F 100% 30.27 in 10.0 mi NE 6.9 mph - N/A   Scattered Clouds
2:15 AM 50.0 °F - 50.0 °F 100% 30.27 in 10.0 mi NE 6.9 mph - N/A   Clear
2:35 AM 50.0 °F - 50.0 °F 100% 30.27 in 10.0 mi NNE 8.1 mph - N/A   Clear
2:55 AM 48.2 °F - 48.2 °F 100% 30.28 in 10.0 mi NNE 5.8 mph - N/A   Clear
3:15 AM 48.2 °F - 48.2 °F 100% 30.28 in 10.0 mi NNE 5.8 mph - N/A   Clear
3:35 AM 46.4 °F 45.2 °F 46.4 °F 100% 30.29 in 10.0 mi North 3.5 mph - N/A   Clear
3:55 AM 46.4 °F 43.5 °F 46.4 °F 100% 30.29 in 10.0 mi North 5.8 mph - N/A   Clear
4:15 AM 48.2 °F - 48.2 °F 100% 30.29 in 10.0 mi NNE 6.9 mph - N/A   Clear
4:35 AM 48.2 °F - 48.2 °F 100% 30.29 in 10.0 mi North 5.8 mph - N/A   Clear
4:55 AM 46.4 °F 44.3 °F 46.4 °F 100% 30.29 in 10.0 mi North 4.6 mph - N/A   Clear
5:15 AM 46.4 °F 43.5 °F 46.4 °F 100% 30.30 in 10.0 mi North 5.8 mph - N/A   Clear
5:35 AM 46.4 °F 42.9 °F 46.4 °F 100% 30.30 in 10.0 mi North 6.9 mph - N/A   Clear
5:55 AM 46.4 °F 41.9 °F 46.4 °F 100% 30.30 in 10.0 mi North 9.2 mph - N/A   Clear
6:15 AM 46.4 °F 42.4 °F 46.4 °F 100% 30.30 in 10.0 mi North 8.1 mph - N/A   Clear
6:35 AM 46.4 °F 42.4 °F 46.4 °F 100% 30.32 in 10.0 mi North 8.1 mph - N/A   Clear
6:55 AM 46.4 °F 42.4 °F 46.4 °F 100% 30.32 in 10.0 mi North 8.1 mph - N/A   Clear
7:15 AM 48.2 °F - 48.2 °F 100% 30.32 in 10.0 mi NNE 5.8 mph - N/A   Clear
7:35 AM 48.2 °F - 48.2 °F 100% 30.33 in 10.0 mi North 4.6 mph - N/A   Clear
7:55 AM 50.0 °F - 50.0 °F 100% 30.33 in 10.0 mi NNE 8.1 mph - N/A   Clear
8:15 AM 50.0 °F - 50.0 °F 100% 30.34 in 10.0 mi NNE 8.1 mph - N/A   Clear
8:35 AM 51.8 °F - 51.8 °F 100% 30.34 in 10.0 mi NNE 6.9 mph - N/A   Clear
8:55 AM 53.6 °F - 53.6 °F 100% 30.35 in 10.0 mi NNE 6.9 mph - N/A   Clear
9:15 AM 53.6 °F - 53.6 °F 100% 30.35 in 10.0 mi NNE 8.1 mph - N/A   Clear
9:35 AM 55.4 °F - 53.6 °F 94% 30.34 in 10.0 mi NE 8.1 mph - N/A   Clear
9:55 AM 55.4 °F - 53.6 °F 94% 30.34 in 10.0 mi NE 6.9 mph - N/A   Clear
10:15 AM 57.2 °F - 51.8 °F 82% 30.35 in 10.0 mi NNE 5.8 mph - N/A   Clear
10:35 AM 57.2 °F - 50.0 °F 77% 30.35 in 10.0 mi NE 6.9 mph - N/A   Partly Cloudy
10:55 AM 59.0 °F - 46.4 °F 63% 30.35 in 10.0 mi NNE 9.2 mph - N/A   Partly Cloudy
11:15 AM 59.0 °F - 46.4 °F 63% 30.35 in 10.0 mi North 8.1 mph - N/A   Partly Cloudy
11:35 AM 59.0 °F - 44.6 °F 59% 30.35 in 10.0 mi NNE 11.5 mph - N/A   Scattered Clouds
11:55 AM 62.6 °F - 46.4 °F 55% 30.35 in 10.0 mi East 8.1 mph - N/A   Scattered Clouds
12:15 PM 62.6 °F - 46.4 °F 55% 30.34 in 10.0 mi NNE 5.8 mph - N/A   Scattered Clouds
12:35 PM 60.8 °F - 44.6 °F 55% 30.34 in 10.0 mi NNE 5.8 mph - N/A   Scattered Clouds
12:55 PM 62.6 °F - 42.8 °F 48% 30.33 in 10.0 mi ENE 8.1 mph - N/A   Mostly Cloudy
1:15 PM 62.6 °F - 41.0 °F 45% 30.33 in 10.0 mi NE 4.6 mph - N/A   Scattered Clouds
1:35 PM 62.6 °F - 44.6 °F 52% 30.33 in 10.0 mi NNE 6.9 mph - N/A   Mostly Cloudy
1:55 PM 62.6 °F - 44.6 °F 52% 30.33 in 10.0 mi NNE 6.9 mph - N/A   Mostly Cloudy
2:15 PM 62.6 °F - 44.6 °F 52% 30.33 in 10.0 mi NE 5.8 mph - N/A   Overcast
2:35 PM 62.6 °F - 46.4 °F 55% 30.33 in 10.0 mi NE 10.4 mph - N/A   Overcast
2:55 PM 62.6 °F - 44.6 °F 52% 30.32 in 10.0 mi East 5.8 mph - N/A   Overcast
3:15 PM 64.4 °F - 46.4 °F 52% 30.32 in 10.0 mi NE 10.4 mph - N/A   Scattered Clouds
3:35 PM 64.4 °F - 44.6 °F 49% 30.31 in 10.0 mi ENE 6.9 mph - N/A   Clear
3:55 PM 64.4 °F - 44.6 °F 49% 30.31 in 10.0 mi ENE 8.1 mph - N/A   Clear
4:15 PM 64.4 °F - 42.8 °F 45% 30.31 in 10.0 mi NNE 6.9 mph - N/A   Clear
4:35 PM 62.6 °F - 44.6 °F 52% 30.31 in 10.0 mi NE 8.1 mph - N/A   Partly Cloudy
4:55 PM 64.4 °F - 44.6 °F 49% 30.30 in 10.0 mi NNE 8.1 mph - N/A   Partly Cloudy
5:15 PM 62.6 °F - 44.6 °F 52% 30.31 in 10.0 mi ENE 6.9 mph - N/A   Scattered Clouds
5:35 PM 64.4 °F - 44.6 °F 49% 30.30 in 10.0 mi NNE 9.2 mph - N/A   Scattered Clouds
5:55 PM 64.4 °F - 44.6 °F 49% 30.30 in 10.0 mi NNE 9.2 mph 16.1 mph N/A   Mostly Cloudy
6:15 PM 64.4 °F - 42.8 °F 45% 30.30 in 10.0 mi NE 8.1 mph - N/A   Scattered Clouds
6:35 PM 62.6 °F - 44.6 °F 52% 30.29 in 10.0 mi NNE 11.5 mph - N/A   Clear
6:55 PM 64.4 °F - 42.8 °F 45% 30.29 in 10.0 mi NNE 10.4 mph - N/A   Clear
7:15 PM 64.4 °F - 42.8 °F 45% 30.28 in 10.0 mi East 6.9 mph - N/A   Clear
7:35 PM 62.6 °F - 44.6 °F 52% 30.28 in 10.0 mi ENE 6.9 mph - N/A   Clear
7:55 PM 62.6 °F - 42.8 °F 48% 30.28 in 10.0 mi NE 8.1 mph - N/A   Clear
8:15 PM 62.6 °F - 44.6 °F 52% 30.28 in 10.0 mi NE 10.4 mph 16.1 mph N/A   Clear
8:35 PM 60.8 °F - 44.6 °F 55% 30.28 in 10.0 mi ENE 5.8 mph - N/A   Clear
8:55 PM 59.0 °F - 44.6 °F 59% 30.28 in 10.0 mi ENE 4.6 mph - N/A   Clear
9:15 PM 57.2 °F - 46.4 °F 67% 30.28 in 10.0 mi NE 4.6 mph - N/A   Clear
9:35 PM 57.2 °F - 48.2 °F 72% 30.28 in 9.0 mi NE 4.6 mph - N/A   Clear
9:55 PM 55.4 °F - 46.4 °F 72% 30.28 in 10.0 mi NE 5.8 mph - N/A   Clear
10:15 PM 53.6 °F - 48.2 °F 82% 30.29 in 10.0 mi NE 3.5 mph - N/A   Clear
10:35 PM 53.6 °F - 48.2 °F 82% 30.29 in 10.0 mi NE 5.8 mph - N/A   Clear
10:55 PM 53.6 °F - 48.2 °F 82% 30.29 in 10.0 mi NE 5.8 mph - N/A   Clear
11:15 PM 51.8 °F - 48.2 °F 88% 30.29 in 10.0 mi NE 5.8 mph - N/A   Clear
11:35 PM 51.8 °F - 50.0 °F 94% 30.29 in 10.0 mi Calm Calm - N/A   Clear
11:55 PM 48.2 °F - 48.2 °F 100% 30.29 in 10.0 mi ENE 3.5 mph - N/A   Clear